timestamp,surface_pressure_avg,surface_temp_avg,battery_voltage,lat,long
2018-11-04 00:00:00+00:00,251.4064,9.51,12.97,47.84626,-54.09684
2018-11-04 00:10:00+00:00,239.6981,9.5,12.97,47.84626,-54.09684
2018-11-04 00:20:00+00:00,236.4781,9.5,13.05,47.84626,-54.09684
2018-11-04 00:30:00+00:00,235.3731,9.5,13.05,47.84626,-54.09684
2018-11-04 00:40:00+00:00,226.6114,9.5,13.05,47.84626,-54.09684
2018-11-04 00:50:00+00:00,222.1548,9.49,13.05,47.84626,-54.09684
2018-11-04 01:00:00+00:00,219.2881,9.48,12.97,47.84626,-54.09684
2018-11-04 01:10:00+00:00,216.5314,9.49,12.97,47.84626,-54.09684
2018-11-04 01:20:00+00:00,214.9098,9.5,13.05,47.84626,-54.09684
2018-11-04 01:30:00+00:00,216.0331,9.5,13.05,47.84626,-54.09684
2018-11-04 01:40:00+00:00,214.3114,9.5,13.05,47.84626,-54.09684
2018-11-04 01:50:00+00:00,206.7082,9.5,13.05,47.84626,-54.09684
2018-11-04 02:00:00+00:00,202.9781,9.5,12.97,47.84626,-54.09684
2018-11-04 02:10:00+00:00,208.2948,9.5,12.97,47.84626,-54.09684
2018-11-04 02:20:00+00:00,208.9981,9.57,13.05,47.84626,-54.09684
2018-11-04 02:30:00+00:00,203.4315,9.5,13.05,47.84626,-54.09684
2018-11-04 02:40:00+00:00,204.1048,9.5,13.05,47.84626,-54.09684
2018-11-04 02:50:00+00:00,209.2914,9.56,13.05,47.84626,-54.09684
2018-11-04 03:00:00+00:00,209.2431,9.6,12.97,47.84626,-54.09684
2018-11-04 03:10:00+00:00,208.7781,9.6,12.97,47.84626,-54.09684
2018-11-04 03:20:00+00:00,210.7798,9.6,13.05,47.84626,-54.09684
2018-11-04 03:30:00+00:00,208.8031,9.6,13.05,47.84626,-54.09684
2018-11-04 03:40:00+00:00,204.4331,9.6,13.05,47.84626,-54.09684
2018-11-04 03:50:00+00:00,208.1498,9.6,13.05,47.84626,-54.09684
2018-11-04 04:00:00+00:00,212.6914,9.61,12.97,47.84626,-54.09684
2018-11-04 04:10:00+00:00,212.9931,9.6,12.97,47.84626,-54.09684
2018-11-04 04:20:00+00:00,220.1515,9.6,13.05,47.84626,-54.09684
2018-11-04 04:30:00+00:00,243.5864,9.6,13.05,47.84626,-54.09684
2018-11-04 04:40:00+00:00,263.7331,9.6,13.05,47.84626,-54.09684
2018-11-04 04:50:00+00:00,264.9564,9.6,13.05,47.84626,-54.09684
2018-11-04 05:00:00+00:00,266.8431,9.6,12.97,47.84626,-54.09684
2018-11-04 05:10:00+00:00,273.9797,9.6,12.97,47.84626,-54.09684
2018-11-04 05:20:00+00:00,273.9031,9.6,13.05,47.84626,-54.09684
2018-11-04 05:30:00+00:00,273.0097,9.6,13.05,47.84626,-54.09684
2018-11-04 05:40:00+00:00,276.0064,9.6,13.05,47.84626,-54.09684
2018-11-04 05:50:00+00:00,278.3813,9.6,13.05,47.84626,-54.09684
2018-11-04 06:00:00+00:00,274.0381,9.6,12.97,47.84626,-54.09684
2018-11-04 06:10:00+00:00,283.123,9.6,12.97,47.84626,-54.09684
2018-11-04 06:20:00+00:00,300.613,9.6,12.97,47.84626,-54.09684
2018-11-04 06:30:00+00:00,320.2879,9.6,13.05,47.84626,-54.09684
2018-11-04 06:40:00+00:00,326.783,9.6,13.05,47.84626,-54.09684
2018-11-04 06:50:00+00:00,338.2529,9.6,13.05,47.84626,-54.09684
2018-11-04 07:00:00+00:00,348.2729,9.6,12.97,47.84626,-54.09684
2018-11-04 07:10:00+00:00,345.7712,9.65,12.97,47.84626,-54.09684
2018-11-04 07:20:00+00:00,333.6947,9.6,12.97,47.84626,-54.09684
2018-11-04 07:30:00+00:00,326.6613,9.6,12.97,47.84626,-54.09684
2018-11-04 07:40:00+00:00,323.6197,9.6,13.05,47.84626,-54.09684
2018-11-04 07:50:00+00:00,331.7296,9.6,13.05,47.84626,-54.09684
2018-11-04 08:00:00+00:00,340.2346,9.61,12.97,47.84626,-54.09684
2018-11-04 08:10:00+00:00,350.4563,9.63,12.97,47.84626,-54.09684
2018-11-04 08:20:00+00:00,356.2613,9.6,12.97,47.84626,-54.09684
2018-11-04 08:30:00+00:00,350.693,9.6,12.97,47.84626,-54.09684
2018-11-04 08:40:00+00:00,347.0779,9.6,13.05,47.84626,-54.09684
2018-11-04 08:50:00+00:00,360.6713,9.6,13.05,47.84626,-54.09684
2018-11-04 09:00:00+00:00,363.923,9.6,12.97,47.84626,-54.09684
2018-11-04 09:10:00+00:00,354.5746,9.6,12.89,47.84626,-54.09684
2018-11-04 09:20:00+00:00,356.0513,9.6,12.97,47.84626,-54.09684
2018-11-04 09:30:00+00:00,359.6896,9.6,12.97,47.84626,-54.09684
2018-11-04 09:40:00+00:00,345.0946,9.6,13.05,47.84626,-54.09684
2018-11-04 09:50:00+00:00,336.3879,9.6,13.05,47.84626,-54.09684
2018-11-04 10:00:00+00:00,340.0413,9.6,12.97,47.84626,-54.09684
2018-11-04 10:10:00+00:00,339.5779,9.6,12.89,47.84626,-54.09684
2018-11-04 10:20:00+00:00,333.1146,9.6,12.97,47.84626,-54.09684
2018-11-04 10:30:00+00:00,332.5729,9.6,12.97,47.84626,-54.09684
2018-11-04 10:40:00+00:00,323.2646,9.6,12.97,47.84626,-54.09684
2018-11-04 10:50:00+00:00,309.0129,9.6,13.05,47.84626,-54.09684
2018-11-04 11:00:00+00:00,301.613,9.6,12.97,47.84626,-54.09684
2018-11-04 11:10:00+00:00,293.7847,9.6,12.89,47.84626,-54.09684
2018-11-04 11:20:00+00:00,285.7031,9.6,12.97,47.84626,-54.09684
2018-11-04 11:30:00+00:00,278.1881,9.6,12.97,47.84626,-54.09684
2018-11-04 11:40:00+00:00,269.433,9.6,12.97,47.84626,-54.09684
2018-11-04 11:50:00+00:00,261.4081,9.6,13.05,47.84626,-54.09684
2018-11-04 12:00:00+00:00,256.4582,9.6,12.97,47.84626,-54.09684
2018-11-04 12:10:00+00:00,249.5615,9.6,12.89,47.84626,-54.09684
2018-11-04 12:20:00+00:00,246.4597,9.6,12.97,47.84626,-54.09684
2018-11-04 12:30:00+00:00,244.2314,9.6,12.97,47.84626,-54.09684
2018-11-04 12:40:00+00:00,237.2431,9.6,13.05,47.84626,-54.09684
2018-11-04 12:50:00+00:00,233.9848,9.6,13.05,47.84626,-54.09684
2018-11-04 13:00:00+00:00,233.2664,9.6,12.97,47.84626,-54.09684
2018-11-04 13:10:00+00:00,227.8047,9.6,12.97,47.84626,-54.09684
2018-11-04 13:20:00+00:00,220.1414,9.6,13.05,47.84626,-54.09684
2018-11-04 13:30:00+00:00,214.9198,9.6,13.05,47.84626,-54.09684
2018-11-04 13:40:00+00:00,205.9348,9.6,13.05,47.84626,-54.09684
2018-11-04 13:50:00+00:00,200.2115,9.6,13.05,47.84626,-54.09684
2018-11-04 14:00:00+00:00,200.3214,9.6,13.05,47.84626,-54.09684
2018-11-04 14:10:00+00:00,199.6315,9.6,13.05,47.84626,-54.09684
2018-11-04 14:20:00+00:00,201.4998,9.6,13.84,47.84626,-54.09684
2018-11-04 14:30:00+00:00,203.7564,9.6,14.0,47.84626,-54.09684
2018-11-04 14:40:00+00:00,202.3065,9.6,13.6,47.84626,-54.09684
2018-11-04 14:50:00+00:00,196.8998,9.6,14.08,47.84626,-54.09684
2018-11-04 15:00:00+00:00,193.7115,9.6,14.08,47.84626,-54.09684
2018-11-04 15:10:00+00:00,195.1681,9.6,13.76,47.84626,-54.09684
2018-11-04 15:20:00+00:00,195.7014,9.6,15.67,47.84626,-54.09684
2018-11-04 15:30:00+00:00,195.1881,9.6,14.08,47.84626,-54.09684
2018-11-04 15:40:00+00:00,194.3331,9.6,14.16,47.84626,-54.09684
2018-11-04 15:50:00+00:00,197.0348,9.6,15.6,47.84626,-54.09684
2018-11-04 16:00:00+00:00,203.2131,9.6,14.48,47.84626,-54.09684
2018-11-04 16:10:00+00:00,206.5015,9.6,15.27,47.84626,-54.09684
2018-11-04 16:20:00+00:00,206.9914,9.6,14.56,47.84626,-54.09684
2018-11-04 16:30:00+00:00,205.3298,9.6,14.48,47.84626,-54.09684
2018-11-04 16:40:00+00:00,209.8914,9.6,14.96,47.84626,-54.09684
2018-11-04 16:50:00+00:00,214.5664,9.6,14.72,47.84626,-54.09684
2018-11-04 17:00:00+00:00,212.0498,9.6,14.48,47.84626,-54.09684
2018-11-04 17:10:00+00:00,209.6898,9.6,14.56,47.84626,-54.09684
2018-11-04 17:20:00+00:00,217.1281,9.6,14.56,47.84626,-54.09684
2018-11-04 17:30:00+00:00,220.2714,9.6,14.64,47.84626,-54.09684
2018-11-04 17:40:00+00:00,222.2331,9.6,14.48,47.84626,-54.09684
2018-11-04 17:50:00+00:00,230.2081,9.6,14.32,47.84626,-54.09684
2018-11-04 18:00:00+00:00,236.3631,9.6,14.16,47.84626,-54.09684
2018-11-04 18:10:00+00:00,240.0231,9.6,14.0,47.84626,-54.09684
2018-11-04 18:20:00+00:00,252.3531,9.6,14.0,47.84626,-54.09684
2018-11-04 18:30:00+00:00,265.8947,9.6,13.92,47.84626,-54.09684
2018-11-04 18:40:00+00:00,271.9714,9.6,13.92,47.84626,-54.09684
2018-11-04 18:50:00+00:00,278.533,9.6,13.84,47.84626,-54.09684
2018-11-04 19:00:00+00:00,290.7614,9.6,13.84,47.84626,-54.09684
2018-11-04 19:10:00+00:00,298.1913,9.6,13.68,47.84626,-54.09684
2018-11-04 19:20:00+00:00,301.5513,9.55,13.68,47.84626,-54.09684
2018-11-04 19:30:00+00:00,308.7097,9.56,13.6,47.84626,-54.09684
2018-11-04 19:40:00+00:00,318.8362,9.58,13.53,47.84626,-54.09684
2018-11-04 19:50:00+00:00,320.1496,9.59,13.53,47.84626,-54.09684
2018-11-04 20:00:00+00:00,324.2463,9.59,13.37,47.84626,-54.09684
2018-11-04 20:10:00+00:00,333.0596,9.59,13.29,47.84626,-54.09684
2018-11-04 20:20:00+00:00,337.863,9.59,13.29,47.84626,-54.09684
2018-11-04 20:30:00+00:00,336.2996,9.58,13.29,47.84626,-54.09684
2018-11-04 20:40:00+00:00,335.843,9.57,13.29,47.84626,-54.09684
2018-11-04 20:50:00+00:00,340.9664,9.54,13.29,47.84626,-54.09684
2018-11-04 21:00:00+00:00,343.8046,9.5,13.21,47.84626,-54.09684
2018-11-04 21:10:00+00:00,345.4097,9.5,13.13,47.84626,-54.09684
2018-11-04 21:20:00+00:00,347.2379,9.5,13.21,47.84626,-54.09684
2018-11-04 21:30:00+00:00,350.5397,9.5,13.21,47.84626,-54.09684
2018-11-04 21:40:00+00:00,351.3663,9.5,13.21,47.84626,-54.09684
2018-11-04 21:50:00+00:00,349.1512,9.5,13.21,47.84626,-54.09684
2018-11-04 22:00:00+00:00,344.9196,9.5,13.13,47.84626,-54.09684
2018-11-04 22:10:00+00:00,345.8313,9.5,13.05,47.84626,-54.09684
2018-11-04 22:20:00+00:00,344.5662,9.5,13.13,47.84626,-54.09684
2018-11-04 22:30:00+00:00,336.5613,9.5,13.13,47.84626,-54.09684
2018-11-04 22:40:00+00:00,330.663,9.5,13.21,47.84626,-54.09684
2018-11-04 22:50:00+00:00,328.8846,9.5,13.21,47.84626,-54.09684
2018-11-04 23:00:00+00:00,320.838,9.5,13.13,47.84626,-54.09684
2018-11-04 23:10:00+00:00,310.3981,9.5,13.05,47.84626,-54.09684
2018-11-04 23:20:00+00:00,308.3947,9.5,13.13,47.84626,-54.09684
2018-11-04 23:30:00+00:00,305.548,9.5,13.13,47.84626,-54.09684
2018-11-04 23:40:00+00:00,294.613,9.5,13.13,47.84626,-54.09684
2018-11-04 23:50:00+00:00,283.423,9.5,13.13,47.84626,-54.09684
